Location: C�mpuri de-Sus
(45.9500°N, 22.5500°E)
Time: 00:57:38
(UTC+00:00)

Cosmos 839 Rocket - Pass Details

Date: 04 June 2022
Orbit: 968 x 2085 km, 65.9° (Epoch: 06 July)

Event Time Altitude Azimuth Distance (km) Brightness Sun altitude
Rises 21:37:45 0° 323° (NW) 3,708 8.2 -20.6°
Reaches altitude 10° 21:40:10 10° 322° (NW) 2,805 7.3 -20.7°
Maximum altitude 21:46:36 71° 240° (WSW) 1,188 4.3 -20.9°
Enters shadow 21:50:01 35° 165° (SSE) 1,866 4.9 -21.0°
